This is the latest recevied weather packets stored in our database for station/object N9XRG. If no packets are shown the sender has not sent any weather packets the latest 10 day(s).
| Time | Temp. | Humidity | Pressure | Rain* | Wind** | Luminosity | Snow |
|---|---|---|---|---|---|---|---|
| 1777904921 | 20° C | 56% | 1005.6 hPa | 0 mm | - | 642 W/m² | - |
| 1777904618 | 18.89° C | 56% | 1005.5 hPa | 0 mm | - | 626 W/m² | - |
| 1777904315 | 18.89° C | 56% | 1006 hPa | 0 mm | - | 592 W/m² | - |
| 1777904013 | 18.89° C | 55% | 1006 hPa | 0 mm | - | 582 W/m² | - |
| 1777903709 | 18.89° C | 56% | 1006.1 hPa | 0 mm | - | 577 W/m² | - |
| 1777903405 | 18.89° C | 57% | 1006 hPa | 0 mm | - | 558 W/m² | - |
| 1777903102 | 18.33° C | 57% | 1006 hPa | 0 mm | - | 534 W/m² | - |
| 1777902798 | 18.33° C | 56% | 1006.1 hPa | 0 mm | - | 504 W/m² | - |
| 1777902496 | 18.33° C | 57% | 1006.1 hPa | 0 mm | - | 495 W/m² | - |
| 1777902192 | 17.78° C | 58% | 1005.9 hPa | 0 mm | - | 442 W/m² | - |
| 1777901890 | 17.78° C | 59% | 1006 hPa | 0 mm | - | 438 W/m² | - |
| 1777901588 | 17.22° C | 59% | 1006 hPa | 0 mm | - | 429 W/m² | - |
| 1777901285 | 16.67° C | 61% | 1006 hPa | 0 mm | - | 408 W/m² | - |
| 1777900982 | 16.67° C | 60% | 1006.2 hPa | 0 mm | - | 395 W/m² | - |
| 1777900680 | 16.11° C | 61% | 1006.2 hPa | 0 mm | - | 414 W/m² | - |
| 1777900376 | 16.11° C | 62% | 1006.2 hPa | 0 mm | - | 395 W/m² | - |
| 1777900074 | 15.56° C | 62% | 1006.3 hPa | 0 mm | - | 361 W/m² | - |
| 1777899770 | 15.56° C | 62% | 1006.1 hPa | 0 mm | - | 328 W/m² | - |
| 1777899467 | 15.56° C | 62% | 1006.4 hPa | 0 mm | - | 303 W/m² | - |
| 1777899164 | 15.56° C | 63% | 1006.5 hPa | 0 mm | - | 297 W/m² | - |
| 1777898862 | 15.56° C | 63% | 1006.7 hPa | 0 mm | - | 285 W/m² | - |
| 1777898559 | 15° C | 67% | 1006.5 hPa | 0 mm | - | 300 W/m² | - |
| 1777898257 | 13.89° C | 69% | 1006.7 hPa | 0 mm | - | 255 W/m² | - |
| 1777897954 | 13.33° C | 69% | 1006.6 hPa | 0 mm | - | 144 W/m² | - |
| 1777897650 | 12.78° C | 71% | 1006.7 hPa | 0 mm | - | 89 W/m² | - |
* Rain latest hour (hover to see other rain measurements)
** Current wind speed in m/s (hover to see current wind gust speed)